Kezdőlap
METAR-TAF:

METAR-TAF

Repülőterek :

Storm Lake Municipal Airport

Storm Lake, Iowa, Amerikai Egyesült Államok

földrajzi szélesség: 42-36N, földrajzi hosszúság: 095-14W, magasság: 454 m

Jelenlegi meteorológiai megfigyelések

A jelentés 27 perccel ezelõtt készült, 13:15 UTC
Észak-északkeleti szél 6 kt
Hőmérséklet 0°C
Páratartalom 86%
Légköri nyomás 1027 hPa
Látótávolság: 16.1 km
Borult 9000 lábon

METAR: KSLB 041315Z AUTO 02006KT 10SM OVC090 M00/M02 A3034 RMK AO2

Idő: 07:42 (13:42 UTC)


TAF: hiányzik

Meteorológiai megfigyelések és előrejelzések több, mint 4000 repülőtéren (METAR és TAF jelentéseket).

A térképen piros és sárga pontok jelzik az elérhető meteorológiai állomásokat.

Mozgassa az egeret a pont fölött, hogy megjelenjen az állomás neve.

Azután kattintson az időjárási megfigyelések és előrejelzések megtekintéséhez.

A térkép megváltoztatása: kattintson a fekete keresztel jelölt zöld gombra ráközelítéshez, a vonallal jelölt zöld gombra távolításhoz, vagy a zöld nyilakra a szomszédos térképek eléréséhez.


METAR-TAF: